TimeEDT,TemperatureF,Dew PointF,Humidity,Sea Level PressureIn,VisibilityMPH,Wind Direction,Wind SpeedMPH,Gust SpeedMPH,PrecipitationIn,Events,Conditions,WindDirDegrees,DateUTC
12:56 AM,-9999,-9999,N/A,29.50,-9999.0,North,-9999.0,-,N/A,Rain,Light Rain,0,2012-10-31 04:56:00
1:56 AM,-9999,-9999,N/A,29.49,-9999.0,North,-9999.0,-,N/A,Rain,Light Rain,0,2012-10-31 05:56:00
2:56 AM,-9999,-9999,N/A,29.49,-9999.0,North,-9999.0,-,N/A,Rain,Light Rain,0,2012-10-31 06:56:00
3:56 AM,-9999,-9999,N/A,29.49,-9999.0,North,-9999.0,-,N/A,Rain,Light Rain,0,2012-10-31 07:56:00
4:56 AM,-9999,-9999,N/A,29.49,-9999.0,North,-9999.0,-,N/A,Rain,Light Rain,0,2012-10-31 08:56:00
5:56 AM,-9999,-9999,N/A,29.49,-9999.0,North,-9999.0,-,N/A,Rain,Light Rain,0,2012-10-31 09:56:00
6:56 AM,57.2,55.4,94,29.52,10.0,South,11.5,-,N/A,,Clear,190,2012-10-31 10:56:00
7:17 AM,59.0,55.4,88,29.51,10.0,SSW,9.2,-,N/A,,Mostly Cloudy,200,2012-10-31 11:17:00
7:56 AM,57.9,53.6,86,29.52,10.0,SW,8.1,-,N/A,,Mostly Cloudy,220,2012-10-31 11:56:00
8:56 AM,59.0,53.8,83,29.53,10.0,SW,9.2,-,N/A,,Mostly Cloudy,230,2012-10-31 12:56:00
9:56 AM,57.2,51.8,82,29.54,10.0,WSW,10.4,-,N/A,,Mostly Cloudy,240,2012-10-31 13:56:00
10:56 AM,-9999,-9999,N/A,29.56,-9999.0,North,-9999.0,-,N/A,,Unknown,0,2012-10-31 14:56:00
10:58 AM,55.4,50.0,82,29.56,10.0,West,11.5,-,N/A,,Mostly Cloudy,260,2012-10-31 14:58:00
11:56 AM,55.4,50.0,82,29.55,10.0,WSW,5.8,-,N/A,,Mostly Cloudy,240,2012-10-31 15:56:00
12:56 PM,57.2,50.0,77,29.54,10.0,WSW,6.9,-,N/A,,Mostly Cloudy,250,2012-10-31 16:56:00
1:56 PM,-9999,-9999,N/A,29.53,-9999.0,North,-9999.0,-,N/A,,Unknown,0,2012-10-31 17:56:00
2:56 PM,-9999,-9999,N/A,29.54,-9999.0,North,-9999.0,-,N/A,,Unknown,0,2012-10-31 18:56:00
3:56 PM,-9999,-9999,N/A,29.54,-9999.0,North,-9999.0,-,N/A,,Unknown,0,2012-10-31 19:56:00
4:56 PM,-9999,-9999,N/A,29.54,-9999.0,North,-9999.0,-,N/A,,Unknown,0,2012-10-31 20:56:00
5:56 PM,-9999,-9999,N/A,29.55,-9999.0,North,-9999.0,-,N/A,,Unknown,0,2012-10-31 21:56:00
6:56 PM,-9999,-9999,N/A,29.56,-9999.0,North,-9999.0,-,N/A,,Unknown,0,2012-10-31 22:56:00
7:56 PM,-9999,-9999,N/A,29.56,-9999.0,North,-9999.0,-,N/A,,Unknown,0,2012-10-31 23:56:00
8:56 PM,-9999,-9999,N/A,29.57,-9999.0,North,-9999.0,-,N/A,,Unknown,0,2012-11-01 00:56:00
9:56 PM,-9999,-9999,N/A,29.57,-9999.0,North,-9999.0,-,N/A,,Unknown,0,2012-11-01 01:56:00
10:56 PM,-9999,-9999,N/A,29.58,-9999.0,North,-9999.0,-,N/A,,Unknown,0,2012-11-01 02:56:00
11:56 PM,-9999,-9999,N/A,29.57,-9999.0,North,-9999.0,-,N/A,,Unknown,0,2012-11-01 03:56:00